RH
59 43 33 39 55 51 45 61 58 50 50 48 51 50 50 50 49 50 51 66 62 43 51 54 48 44 37 37 37 45 56 52 48 46 44 44 41 39 36 34 34 31 30 29 27 29 29 29 30 30 31 33 35 35 32 31 29 27 26 25 26 26 25 24 22 21 21 21 22 24 26 28 31 32 35 35 31 29 31 32 41 56 63 66 74 79
64 40 31 56 75 64 55 64 56 52 57 55 53 49 55 59 54 49 44 60 63 43 48 56 47 38 33 37 40 47 56 53 51 49 46 45 42 41 38 35 34 31 30 29 28 28 27 28 29 31 32 33 35 34 31 30 28 27 26 25 26 26 25 23 22 22 22 22 24 26 30 32 32 34 36 38 36 33 33 34 33 40 49 55 62 69
55 31 27 53 70 65 66 73 59 56 62 59 57 48 52 61 55 50 49 62 64 41 40 50 44 36 32 35 43 50 52 48 48 48 46 46 45 43 39 36 34 33 32 30 29 28 27 28 28 30 32 33 35 33 31 30 28 27 26 26 26 25 24 22 21 23 23 24 26 28 31 32 33 35 37 41 43 39 37 36 33 32 35 41 49 55
30 26 41 58 64 56 54 66 64 58 59 59 57 48 53 56 42 42 51 60 59 44 44 51 51 45 35 37 47 52 52 49 50 52 50 48 47 44 41 39 36 34 33 31 30 29 28 28 28 31 33 34 35 33 31 29 27 26 26 26 26 25 23 21 21 23 24 27 29 31 33 34 35 36 41 47 48 42 39 37 33 31 29 31 36 41
22 32 61 66 61 53 41 50 55 42 42 58 61 51 53 48 33 38 48 50 55 57 56 53 54 51 42 42 47 51 54 51 49 50 49 47 47 45 43 40 37 35 34 32 32 30 29 28 29 31 32 34 34 32 31 29 27 26 26 27 26 24 22 21 22 23 26 30 31 33 35 36 37 39 43 46 45 41 40 37 33 30 28 29 30 32
29 41 59 53 53 55 41 40 43 34 33 51 59 50 46 39 33 42 49 48 52 55 49 45 47 50 48 43 40 50 56 49 45 46 45 44 44 44 43 39 37 37 35 34 33 31 31 29 29 32 34 36 34 32 32 30 27 26 26 27 25 23 21 20 22 24 28 31 32 34 37 39 41 44 45 43 43 41 38 35 33 31 29 30 31 33
39 50 56 47 53 53 42 37 40 45 40 38 48 51 47 41 39 46 49 50 54 50 43 43 44 48 48 35 35 53 57 46 43 45 43 41 40 42 41 37 36 36 35 35 34 33 33 31 32 34 36 36 34 33 33 30 28 26 27 27 24 22 20 20 22 25 30 33 34 36 38 40 43 47 48 45 43 39 36 36 35 33 30 32 36 43
44 48 49 46 48 40 34 32 37 52 48 40 49 51 46 42 44 51 49 51 59 54 51 52 43 51 56 39 41 55 47 39 39 39 40 39 37 39 39 38 37 36 36 36 37 36 35 33 33 35 34 35 34 33 34 31 27 27 27 26 23 21 20 20 23 26 30 33 35 38 39 40 44 48 48 45 42 38 37 38 35 32 32 36 45 52
45 38 41 42 42 35 31 32 41 48 39 42 55 52 51 50 52 58 54 62 69 51 51 57 41 48 59 44 47 51 35 34 37 35 38 37 36 38 37 39 38 37 38 37 38 38 37 34 33 34 34 36 36 34 35 32 28 28 27 24 22 20 20 21 24 27 31 34 36 38 40 43 46 47 46 42 40 37 36 35 33 33 36 42 50 55
41 38 46 40 33 34 33 36 47 44 33 45 58 57 64 69 68 68 64 71 68 50 55 58 38 42 52 40 41 41 33 40 41 39 44 42 43 43 42 43 40 41 43 41 41 38 35 34 33 35 37 38 39 37 35 32 29 27 25 23 21 20 20 22 25 29 32 34 33 34 38 45 46 42 39 37 35 35 35 35 35 36 40 45 51 53
50 52 59 47 35 37 36 45 58 49 42 47 50 50 57 64 66 71 82 73 52 55 69 59 41 43 48 42 38 39 46 56 46 39 44 44 45 46 46 49 46 46 47 46 46 41 37 35 34 38 40 41 40 38 35 31 28 27 24 22 21 20 21 22 26 30 31 30 27 27 34 42 43 38 35 34 34 37 37 36 36 39 44 49 50 51
52 46 54 55 53 48 34 42 57 57 59 54 45 43 44 53 53 58 80 68 45 62 73 60 51 48 47 43 40 44 55 61 50 38 37 36 38 41 45 50 51 51 51 50 50 47 44 43 42 43 43 42 41 38 34 30 27 26 23 22 21 21 22 24 27 29 28 25 23 26 34 39 39 35 34 35 37 39 38 37 39 43 48 51 51 51
49 48 53 47 52 52 30 33 46 53 64 55 46 51 51 58 61 58 68 62 56 64 58 55 54 45 44 38 33 40 42 46 49 42 37 35 37 40 42 48 53 56 56 53 52 50 50 50 49 48 45 43 41 37 34 29 27 25 22 22 21 21 23 24 27 27 24 23 23 27 34 36 36 35 36 39 40 41 39 39 42 47 52 53 52 51
49 56 53 36 42 47 31 31 35 37 46 38 39 56 58 57 61 67 69 58 59 60 50 54 53 44 46 42 36 38 31 34 45 45 46 46 45 45 47 52 57 58 59 58 56 54 53 52 50 49 46 42 40 37 33 29 27 25 22 22 22 22 24 25 25 24 22 22 24 28 32 35 36 36 38 40 40 40 41 43 47 51 53 53 52 53
38 38 38 35 41 39 30 36 36 33 41 41 42 48 53 55 52 57 68 58 55 66 62 53 50 52 51 43 41 42 39 44 50 53 58 59 58 58 58 58 57 55 56 59 61 59 55 53 50 49 46 41 38 35 32 29 27 25 23 22 23 23 24 25 23 22 22 22 25 29 32 35 36 37 38 39 42 45 48 50 53 54 54 53 53 54
32 28 39 47 46 37 34 44 46 38 39 47 50 43 49 62 55 53 70 69 61 75 80 64 60 63 49 36 43 48 48 47 46 51 56 56 60 61 59 56 52 51 52 54 58 59 57 55 53 51 47 42 39 35 32 30 27 26 24 23 23 23 23 23 22 21 22 23 26 30 33 35 36 38 42 45 48 52 53 56 57 55 54 52 51 50
30 31 48 51 43 39 41 46 48 44 40 43 48 48 52 59 59 55 60 68 67 71 76 65 60 59 45 43 55 53 44 41 43 50 53 54 57 56 54 50 47 48 48 49 53 54 53 54 54 53 49 44 40 36 33 31 29 26 25 23 23 23 23 22 21 21 22 24 27 31 33 35 36 38 41 43 46 47 48 51 53 53 51 49 49 48
32 39 52 49 35 41 53 51 48 51 51 46 45 52 50 48 61 62 53 67 79 75 70 62 63 64 50 47 53 46 39 40 45 50 52 51 50 48 47 45 44 45 45 47 50 52 53 53 53 52 49 46 42 38 35 33 30 27 24 23 23 22 22 21 20 21 22 25 28 31 33 35 37 39 40 41 43 46 48 50 51 51 49 48 48 47
39 40 51 55 42 46 54 46 43 46 47 47 46 46 42 42 60 66 58 66 73 71 71 66 69 72 59 52 51 43 40 41 41 45 48 46 42 43 43 41 41 41 42 45 46 49 53 52 52 51 47 45 41 39 37 33 30 26 24 23 22 21 20 20 20 21 23 27 29 31 33 36 38 40 40 42 45 47 50 51 50 50 49 48 48 47
43 33 43 53 46 44 43 41 50 49 44 47 46 45 49 55 67 67 61 69 69 68 75 72 64 61 62 67 57 40 38 38 38 43 45 43 42 42 40 38 38 37 38 40 41 45 50 49 50 49 46 44 40 38 36 32 29 26 23 22 21 21 21 21 21 22 25 29 30 32 34 37 39 40 41 43 45 48 50 50 49 49 48 48 48 47
46 33 42 51 47 44 38 39 50 49 48 51 48 53 56 54 63 62 56 69 73 69 80 84 66 49 54 65 50 34 36 39 41 44 43 42 41 38 38 37 36 36 36 37 38 42 45 46 47 46 46 43 39 36 34 31 28 25 23 23 21 21 21 21 21 23 27 30 32 34 35 37 38 40 42 44 45 48 49 49 49 49 49 49 48 48
43 38 53 56 46 42 40 45 50 46 51 56 54 64 66 60 64 61 58 73 75 69 78 85 68 43 42 53 43 33 37 39 43 46 42 40 37 34 36 35 35 36 36 36 38 39 41 43 43 42 43 41 38 36 33 31 28 25 24 22 21 23 22 21 22 24 28 30 32 34 35 37 39 40 43 44 46 48 48 49 49 49 49 49 49 50
52 49 57 55 44 40 42 52 59 57 55 52 54 66 71 68 63 54 60 75 72 68 76 86 81 52 36 47 46 39 43 44 44 44 41 38 37 36 37 36 37 37 37 38 39 39 40 41 39 38 38 37 36 34 32 31 29 25 24 22 22 23 22 22 23 25 28 30 32 34 35 37 39 41 43 45 46 48 48 49 49 48 48 48 49 50
54 50 49 52 53 52 52 56 59 57 49 43 53 67 66 65 67 65 71 75 72 72 69 76 79 50 34 51 53 44 45 44 39 39 38 37 37 37 38 38 38 37 38 40 40 41 42 40 39 38 35 34 34 32 31 30 29 27 25 23 23 23 22 23 24 26 29 30 31 33 35 37 40 42 44 46 47 48 49 49 49 49 49 49 50 51
44 51 53 52 53 55 62 66 61 55 47 43 57 72 66 67 76 74 68 65 67 70 64 68 68 42 34 47 41 34 38 36 35 35 34 36 36 36 37 37 37 37 39 40 40 42 43 42 41 38 35 33 32 31 31 29 28 28 25 24 24 23 23 24 25 27 28 30 31 33 36 38 40 42 45 46 48 49 49 50 51 51 50 50 51 53
45 53 51 45 48 52 53 57 58 57 57 52 57 65 61 61 63 61 63 64 64 68 69 71 63 37 30 35 29 30 36 35 36 35 33 35 34 35 37 36 37 39 39 40 41 42 43 43 41 38 35 33 31 31 31 29 29 28 26 25 24 23 24 24 25 27 28 30 32 34 36 38 40 43 45 47 48 49 50 51 52 52 52 53 55 57
56 57 52 48 54 51 41 42 49 55 55 48 50 58 59 61 59 61 75 72 64 73 74 62 54 45 38 37 34 36 38 37 38 37 36 37 35 37 39 38 40 40 38 40 41 41 43 42 40 38 35 33 31 30 29 29 29 28 27 26 24 24 24 24 25 27 28 30 33 34 36 36 38 42 44 46 48 49 51 53 53 54 54 55 58 60
55 55 58 57 55 49 44 43 46 51 50 44 47 54 58 67 66 62 67 59 55 72 69 45 45 54 47 39 37 39 39 39 40 40 39 39 38 39 39 39 41 41 39 40 39 40 42 41 40 40 36 34 33 30 29 29 28 27 27 26 25 25 24 24 26 27 29 32 33 35 35 35 37 41 44 46 48 50 52 54 54 55 56 59 62 63
58 57 65 63 57 55 51 48 48 51 51 50 54 55 57 68 70 61 57 52 51 62 56 40 43 51 45 39 40 41 41 42 43 42 41 40 39 40 40 42 43 42 42 42 41 41 41 41 42 42 39 38 36 33 30 29 28 27 27 26 26 25 24 25 27 28 31 33 34 35 35 35 38 41 45 47 49 52 54 54 56 56 58 62 64 64
61 68 79 73 65 60 53 52 57 61 61 59 58 58 59 65 69 66 59 54 54 56 51 45 49 51 45 42 44 43 43 44 44 42 40 39 39 40 42 45 45 45 45 44 43 44 43 44 44 43 43 42 39 38 35 31 30 29 27 27 26 25 26 27 28 30 33 34 35 35 35 36 40 42 46 49 50 53 55 55 57 59 62 65 66 66
47 67 87 79 65 60 57 61 64 65 67 64 56 55 58 59 65 69 64 61 64 65 59 56 63 63 50 43 46 45 42 43 43 42 41 39 40 43 46 48 48 47 46 46 46 47 46 47 47 46 47 46 44 43 40 36 34 30 28 28 26 26 27 28 29 31 33 34 35 36 37 39 42 44 48 50 52 54 56 56 59 63 65 68 68 69
49 69 85 76 64 59 60 64 62 57 61 64 59 57 62 66 71 75 72 70 69 64 63 67 72 66 49 42 45 43 41 45 45 43 43 41 42 46 49 51 50 48 49 49 49 50 50 51 51 50 50 49 48 47 44 41 37 32 30 29 27 28 29 29 30 32 34 35 36 37 39 41 44 47 49 52 53 55 56 58 61 65 69 70 71 72
65 68 71 67 68 71 68 63 58 54 58 60 52 47 54 62 69 70 66 64 61 57 61 69 64 53 45 45 48 47 46 49 47 46 46 45 45 48 50 52 51 50 51 51 51 53 54 53 53 53 53 52 50 49 46 43 39 35 33 31 29 29 30 31 32 33 35 36 36 38 40 41 45 49 51 53 54 55 57 59 62 66 69 71 73 75
77 64 65 64 67 79 78 63 52 49 55 56 46 43 47 46 48 52 47 45 50 52 56 60 54 47 47 48 50 51 50 49 48 47 46 46 47 49 51 51 51 51 52 52 53 55 55 55 55 54 55 54 52 50 47 42 40 37 34 32 30 30 30 32 34 35 36 37 37 39 41 42 46 49 52 54 55 56 58 60 63 66 68 71 74 78
78 65 72 73 71 81 80 66 56 56 58 53 45 48 52 48 47 51 47 43 48 50 52 55 52 49 49 48 48 50 49 48 49 47 45 45 47 50 52 52 51 53 53 53 56 57 57 57 58 58 57 55 53 50 46 43 41 38 35 33 31 30 32 33 34 36 37 37 38 40 41 44 47 50 53 55 56 57 58 60 63 66 69 73 76 80
84 76 77 77 75 73 69 64 61 58 54 47 41 43 49 51 53 55 53 47 43 45 51 54 52 49 48 48 49 48 49 50 49 45 44 46 47 49 52 53 52 53 54 55 57 59 59 58 60 61 59 56 53 51 48 45 42 38 36 34 32 32 32 34 36 37 37 37 39 40 41 44 47 50 54 56 58 59 60 61 64 66 69 74 78 81
77 76 68 66 71 70 71 76 71 59 50 44 41 42 42 44 45 49 55 51 42 46 52 51 51 52 50 50 52 50 51 56 52 43 42 47 49 50 52 53 53 54 55 55 57 58 59 60 62 62 60 57 55 53 52 48 42 38 37 34 33 33 33 35 37 36 36 38 39 40 40 42 46 50 54 58 60 61 62 63 65 67 69 75 80 83
66 71 61 56 70 78 75 80 85 80 67 52 44 43 43 46 45 44 53 58 50 48 50 50 52 55 53 54 55 54 59 66 63 50 45 49 51 52 54 54 53 54 56 57 59 60 61 63 64 65 63 60 58 58 57 52 44 39 37 36 35 35 35 37 38 36 36 37 38 39 39 41 46 49 53 59 60 61 64 65 66 68 71 75 80 83
71 84 77 63 76 86 77 78 87 84 69 55 47 43 44 51 51 45 52 67 65 52 46 50 55 55 55 58 58 60 70 80 76 59 50 53 53 53 56 56 55 57 58 58 60 62 63 65 65 66 67 64 63 62 60 55 47 40 39 38 37 38 39 39 37 35 35 36 37 37 37 40 45 48 52 58 60 62 65 66 67 69 72 76 81 82
84 90 83 74 84 91 84 87 90 76 59 50 46 44 47 54 56 48 49 61 62 50 45 51 55 56 57 60 61 66 74 80 75 62 53 54 55 53 56 58 59 60 59 59 61 62 64 65 66 67 69 68 66 65 63 57 49 43 42 41 41 42 41 38 35 35 36 38 38 38 39 42 45 48 52 56 59 63 65 67 70 71 73 78 81 83
95 96 88 87 97 98 91 89 86 73 60 50 45 45 47 52 58 56 51 50 50 47 47 51 55 57 58 60 64 68 67 65 63 59 54 55 58 57 57 58 59 60 60 60 62 63 64 66 66 68 70 70 69 68 66 60 51 47 47 46 45 45 42 39 38 39 39 40 40 40 43 45 45 47 51 53 58 64 68 70 72 72 74 78 81 84
82 91 88 89 94 94 95 95 85 70 56 46 45 45 44 52 63 60 49 45 46 49 51 52 55 58 58 60 63 63 61 58 57 58 58 59 61 61 60 60 61 61 61 62 62 64 66 66 67 68 69 70 71 71 70 63 54 52 52 51 51 51 47 44 43 42 41 41 43 44 47 49 49 49 52 56 61 68 73 75 75 75 76 79 82 86
62 68 74 85 83 80 90 93 80 66 52 41 45 50 48 55 62 53 45 47 49 50 53 54 56 58 58 61 62 60 61 62 60 61 62 61 62 63 62 62 63 63 63 63 64 66 67 68 69 68 68 70 72 74 74 68 60 58 58 57 57 57 56 51 46 44 44 45 45 46 48 51 52 53 56 61 65 70 75 78 79 79 80 82 86 91
58 53 63 77 74 72 86 85 65 54 49 41 44 50 49 48 51 49 49 53 51 50 54 57 57 58 59 61 63 63 64 65 63 64 65 64 64 64 63 62 63 63 63 64 65 67 69 70 68 66 67 69 71 75 79 74 67 66 65 63 61 61 61 57 50 48 48 48 48 50 52 54 55 56 60 65 68 73 78 81 83 84 84 87 90 95
51 46 51 62 64 63 67 64 50 42 42 41 41 45 47 48 50 51 51 54 53 53 56 59 60 60 59 61 64 66 66 67 66 66 66 66 65 64 63 63 63 63 63 63 64 68 71 70 67 66 66 66 70 80 84 78 74 74 70 64 63 64 66 64 57 53 52 52 53 54 56 59 61 62 64 66 70 75 80 83 87 89 89 93 95 97
52 51 49 54 63 61 48 42 42 40 40 41 39 42 48 51 50 51 53 55 56 55 56 59 61 60 60 63 67 68 67 67 68 68 67 66 65 63 63 63 61 62 64 63 65 71 75 72 66 64 64 67 77 85 81 73 74 76 71 65 65 69 71 69 63 59 58 57 58 59 62 66 68 67 68 69 72 75 77 82 88 90 92 97 98 99
57 56 49 47 58 63 50 39 40 41 41 43 42 45 52 52 50 52 56 56 56 56 58 59 60 60 62 64 67 68 68 67 69 69 67 65 65 65 64 62 62 63 63 62 67 76 79 73 65 65 71 78 83 80 72 67 68 67 64 65 69 73 76 74 69 66 64 62 63 65 68 70 71 72 74 78 81 82 83 86 88 89 94 97 98 100
51 48 48 51 58 61 53 42 41 44 44 46 50 53 53 52 53 55 56 56 57 59 59 58 59 62 64 63 65 68 68 67 68 68 66 66 67 66 63 61 62 62 60 63 75 82 78 71 71 77 83 82 76 69 66 65 63 60 61 67 74 80 82 80 75 72 69 68 69 70 73 74 74 75 80 85 87 87 89 92 93 93 93 92 91 93
50 47 50 58 63 62 55 47 49 54 51 50 55 56 53 54 58 59 57 57 60 60 60 60 61 62 63 63 65 68 69 69 67 66 66 68 67 64 62 61 61 60 63 72 82 82 76 76 81 83 81 74 67 65 64 63 61 62 67 73 80 86 87 84 81 78 75 74 73 73 76 78 77 78 82 88 91 90 88 89 90 90 89 88 86 84
52 50 55 68 74 72 62 52 56 65 64 58 55 55 55 57 59 60 60 61 62 62 63 65 63 61 61 62 64 68 71 70 66 65 68 69 66 63 62 61 60 65 74 82 83 79 78 80 81 78 74 69 65 64 64 63 65 69 75 79 86 92 91 88 86 84 81 79 78 77 78 79 80 82 84 87 92 96 96 94 92 90 89 88 84 79
48 46 56 68 72 68 59 52 57 65 65 60 56 55 57 58 59 63 64 63 63 64 64 66 67 65 63 62 61 66 71 70 68 68 69 67 64 64 63 61 66 77 84 83 80 79 79 78 75 74 73 70 67 66 66 69 73 78 80 83 89 95 95 92 90 88 85 83 81 80 80 80 82 86 89 89 91 97 101 102 102 99 97 94 88 84
Wind_Speed
4 4 1 4 5 4 4 4 5 5 5 5 4 3 4 4 5 6 4 5 1 1 7 6 7 14 14 11 11 7 7 10 12 11 11 10 9 9 9 11 12 12 16 18 18 22 27 29 31 31 30 28 26 26 24 23 23 22 21 20 18 17 15 14 14 14 15 16 16 17 17 18 18 18 18 17 18 19 19 18 17 16 15 14 13 13
5 4 3 6 6 5 3 4 5 5 5 4 4 2 3 3 6 6 2 4 2 1 5 2 7 17 15 10 9 6 8 12 14 13 13 13 11 9 10 13 13 11 13 14 17 22 24 27 30 29 29 29 29 29 27 26 25 23 21 20 18 17 15 14 14 14 14 15 15 16 16 16 18 18 17 16 16 17 18 18 18 17 15 14 13 12
5 1 4 4 5 5 5 4 4 4 5 3 2 1 3 4 5 5 2 3 3 1 5 5 8 17 18 10 7 8 10 11 10 12 12 11 11 10 11 12 11 11 12 12 16 20 23 26 28 29 30 31 31 30 28 27 26 24 22 21 19 17 16 15 14 14 14 14 15 15 16 16 17 18 17 16 15 16 17 18 18 18 17 15 13 12
1 3 4 2 5 6 5 4 6 5 3 2 3 2 4 3 2 4 4 4 3 3 5 6 6 13 16 9 5 5 7 6 5 7 8 7 10 12 10 9 10 12 14 13 13 16 20 23 26 29 31 31 31 31 30 28 27 25 24 22 20 18 16 14 14 14 14 14 14 15 15 16 17 19 17 15 16 16 17 18 19 19 19 17 15 13
2 3 1 5 5 5 3 2 5 3 2 2 4 5 4 3 2 4 4 6 6 3 2 5 5 7 8 6 5 4 3 6 4 5 9 8 10 9 8 9 11 13 13 13 13 13 15 20 26 30 31 31 31 33 33 31 29 27 25 22 19 17 16 14 14 13 13 13 14 14 15 16 17 18 17 17 18 17 17 18 19 20 21 19 16 14
1 2 2 4 5 5 3 2 2 4 2 4 4 6 5 2 1 3 5 7 5 4 2 3 4 5 5 5 7 4 4 6 3 5 11 10 8 7 8 12 13 12 13 12 14 14 14 19 24 27 28 30 32 36 36 32 29 26 24 22 19 17 16 14 13 13 13 13 14 14 15 16 17 18 18 17 17 17 17 18 19 20 21 18 14 11
1 1 2 4 4 5 3 2 4 4 3 3 3 4 5 4 3 5 4 3 2 4 2 3 0 5 6 6 8 4 6 8 4 6 11 10 8 8 9 12 11 11 12 11 13 15 16 19 21 23 28 31 34 36 34 31 28 26 24 22 20 18 16 15 13 13 13 14 14 14 16 18 18 19 19 17 16 16 17 17 17 19 19 14 10 8
2 3 3 4 5 4 2 2 4 6 5 2 3 3 3 4 5 4 1 2 2 3 4 2 3 3 6 6 5 3 5 9 7 8 10 9 10 10 11 12 12 13 12 10 11 12 16 20 22 25 29 31 33 34 31 30 29 27 25 22 20 18 16 15 14 13 14 14 14 14 16 19 20 19 19 18 17 16 16 16 17 19 16 10 7 7
2 3 3 4 4 2 3 4 6 7 2 5 4 2 2 2 2 2 4 3 1 3 5 3 2 1 6 6 3 3 4 8 9 9 9 9 10 10 11 12 13 13 11 10 10 12 16 21 25 28 28 28 30 30 31 31 30 27 25 22 20 18 17 16 14 14 15 15 15 15 18 20 20 20 19 17 16 16 16 17 18 17 13 9 8 7
1 2 4 6 4 4 5 3 6 7 2 3 4 3 3 3 3 3 4 2 2 2 5 5 1 1 5 7 3 2 2 6 8 8 8 8 8 8 9 11 11 10 9 9 10 14 19 22 24 25 24 25 27 28 30 30 28 27 25 22 21 19 17 16 15 15 16 15 15 17 19 20 21 20 19 17 17 17 16 17 17 15 12 10 10 10
1 1 2 3 3 4 4 2 3 6 2 1 3 3 3 4 4 3 2 3 2 3 6 5 1 2 3 6 4 3 4 5 5 5 7 7 8 8 8 9 9 8 8 8 8 13 20 22 21 20 22 24 25 25 27 28 28 27 25 23 22 20 18 17 16 16 16 16 16 18 20 21 21 20 18 18 18 17 16 17 17 15 13 13 12 12
3 1 1 1 1 3 4 2 1 1 2 3 2 3 3 3 3 3 4 3 2 4 5 4 2 2 2 7 5 5 6 5 5 5 7 8 8 9 8 7 7 7 7 7 7 10 13 15 17 18 21 23 22 24 27 28 28 27 26 24 22 21 19 18 18 18 17 17 18 19 20 21 21 20 19 18 18 17 17 17 16 14 14 14 14 13
3 3 2 2 0 2 3 0 3 3 3 4 3 4 4 4 4 3 3 1 2 5 3 1 2 1 5 9 9 10 11 8 8 8 9 9 9 9 8 7 6 5 6 7 7 8 8 10 14 18 21 22 23 26 29 29 29 28 27 25 23 23 21 19 19 18 18 18 19 19 20 21 21 20 19 18 18 18 17 17 17 16 16 15 15 14
4 3 2 1 1 0 3 2 1 1 2 2 1 2 2 1 3 4 4 3 4 4 2 2 2 3 6 7 9 12 12 9 8 8 8 8 9 9 8 7 7 7 8 7 7 8 8 10 14 18 20 22 25 28 29 30 30 29 28 26 25 24 22 20 20 19 19 19 19 19 21 21 21 20 19 19 19 19 18 18 18 18 17 15 14 13
1 4 1 2 1 1 1 3 3 3 3 1 2 4 3 3 2 4 4 3 6 5 3 3 1 3 3 4 6 9 9 7 5 5 6 7 8 7 8 9 9 10 9 7 7 8 10 14 17 18 20 23 26 28 29 30 31 30 29 28 27 25 23 22 21 20 20 19 19 20 21 22 22 21 20 20 19 18 18 18 18 18 16 15 14 13
1 5 3 1 2 1 1 1 2 4 2 0 2 4 1 4 4 2 3 4 2 4 4 2 3 5 4 7 7 4 5 6 5 4 5 8 7 5 7 9 9 9 9 7 8 9 12 16 18 19 21 24 26 27 29 31 32 32 31 30 28 26 25 23 22 21 21 20 20 21 22 23 22 21 20 19 18 18 17 17 18 18 17 16 16 16
0 4 3 3 2 2 1 2 1 2 1 1 1 2 4 3 5 2 2 1 3 2 4 2 3 5 4 7 7 5 6 6 4 5 5 7 7 5 7 9 8 9 9 8 8 9 12 15 18 21 23 25 26 28 31 33 34 34 33 31 29 27 25 24 23 22 21 21 21 22 23 23 23 22 21 21 21 20 20 19 18 18 18 17 17 17
1 4 4 1 1 1 1 1 2 2 2 3 2 4 2 2 4 3 1 4 3 2 5 1 4 5 2 5 6 8 7 7 6 7 7 8 7 6 8 9 9 10 9 9 10 10 11 14 18 22 25 27 29 30 32 34 34 33 33 31 30 28 27 26 24 23 23 22 23 24 24 24 23 23 22 22 21 20 19 20 19 18 18 18 17 17
2 2 6 1 1 3 2 2 2 3 2 3 3 2 2 2 1 1 1 1 1 3 5 3 4 3 4 5 5 5 5 7 8 8 8 9 8 7 9 9 11 10 9 9 9 9 10 14 19 23 25 27 29 30 31 31 32 32 32 31 30 29 27 25 24 23 23 24 24 25 25 24 24 23 22 21 20 20 20 20 19 19 18 18 18 18
2 0 4 2 1 3 3 1 2 1 3 3 0 1 2 2 3 1 1 2 2 2 4 5 5 3 6 6 3 5 8 7 8 8 7 9 8 8 8 9 10 10 9 9 9 9 10 14 20 23 25 27 28 29 30 30 31 33 32 31 30 29 27 25 25 24 25 26 26 25 25 24 24 23 22 21 21 21 21 20 20 19 18 18 18 18
2 1 4 4 3 1 1 2 5 5 2 2 1 1 1 0 1 0 1 2 3 2 2 3 7 6 4 4 4 7 9 7 7 7 7 8 9 9 9 9 10 10 11 11 10 10 10 14 20 23 24 26 26 27 28 29 32 32 32 32 31 30 29 28 27 26 27 27 26 26 26 25 24 23 22 22 22 23 22 21 20 19 18 18 19 19
1 2 3 3 3 3 4 3 3 5 5 4 4 4 3 3 3 0 3 1 2 2 4 2 8 9 2 4 5 6 6 6 6 6 7 9 11 11 11 11 11 11 11 12 11 10 10 13 18 20 21 22 23 25 28 30 31 32 33 34 33 32 31 31 29 28 29 28 27 27 26 25 24 23 23 23 23 24 23 22 21 20 19 20 20 20
2 3 1 4 5 4 4 2 1 2 4 4 2 2 3 3 4 4 4 3 0 2 2 3 5 6 1 3 5 4 3 5 6 6 8 10 11 12 12 12 12 12 12 12 12 10 10 14 18 18 19 20 23 26 28 30 32 33 36 35 34 33 34 32 30 30 29 28 28 27 26 25 24 23 24 24 24 24 24 22 21 20 20 21 21 21
1 2 1 4 5 3 3 3 3 2 3 1 1 1 3 2 3 5 5 3 2 3 2 1 5 6 1 2 4 3 2 6 7 8 10 11 11 11 12 12 12 12 13 12 11 9 11 14 16 15 17 19 22 25 28 31 33 33 35 35 35 35 35 32 30 30 30 29 28 27 26 26 25 24 24 25 25 25 24 23 22 21 21 21 21 21
1 0 1 3 6 6 5 5 5 4 1 2 3 1 2 4 5 3 2 2 2 5 7 4 9 8 3 3 6 7 8 11 11 11 12 13 12 12 12 12 12 13 13 14 13 12 11 11 12 13 17 20 22 25 27 30 32 33 34 35 36 36 34 32 32 31 31 30 29 28 27 27 26 25 26 26 26 25 24 23 22 21 22 22 22 22
2 1 1 0 3 5 6 6 4 2 2 2 2 2 3 4 5 3 1 2 3 4 6 5 9 11 8 10 15 14 13 13 14 14 15 15 14 13 13 14 14 13 14 16 15 13 12 10 10 14 18 21 23 25 27 29 32 33 34 36 37 36 35 34 33 32 31 30 30 29 29 28 27 27 27 27 26 25 24 23 22 22 22 22 22 21
1 1 2 5 6 6 8 7 2 1 3 6 6 5 5 4 5 4 3 2 4 2 2 7 10 14 16 15 15 13 13 14 15 15 16 16 15 14 13 13 13 13 13 14 13 13 13 12 12 14 18 22 24 26 28 29 31 32 34 36 37 36 36 35 34 32 32 31 31 31 31 30 29 29 28 27 27 26 24 23 23 23 22 22 22 21
3 2 3 6 8 10 11 10 5 2 5 10 10 8 5 5 5 6 6 10 4 2 6 10 7 9 14 15 14 14 15 14 14 15 16 15 14 13 13 14 15 14 13 13 14 14 15 15 14 14 18 22 24 26 28 30 31 32 33 36 37 37 37 36 33 32 32 32 32 33 33 31 30 29 28 27 27 26 24 24 23 23 23 22 22 21
5 3 4 4 6 11 11 11 9 6 7 8 10 11 7 6 8 10 13 14 5 2 12 15 10 11 14 15 16 15 14 14 14 15 15 15 14 14 14 15 15 15 15 16 16 16 16 16 15 15 19 23 23 25 27 29 30 31 33 35 36 37 38 37 34 33 33 33 34 35 33 32 30 29 28 27 27 26 25 24 23 23 23 23 22 21
4 3 3 2 5 11 11 11 9 6 6 6 8 10 8 8 11 11 12 13 7 9 16 18 17 17 14 14 15 13 11 12 11 13 15 16 15 15 17 16 14 15 17 17 18 17 16 17 17 18 21 23 23 25 26 27 29 31 33 34 34 37 38 36 35 35 34 35 35 35 33 31 30 29 28 27 27 26 25 24 23 23 24 24 22 21
1 2 1 3 3 9 9 7 5 3 5 7 9 10 7 6 7 7 8 8 6 9 13 13 13 12 9 9 10 10 11 11 12 15 17 18 17 16 16 14 15 18 18 18 18 18 17 18 18 18 20 24 27 28 27 28 30 30 30 32 35 36 35 35 36 36 36 36 36 34 33 32 31 30 29 28 27 26 25 24 23 23 24 23 22 21
1 2 2 5 3 7 4 5 7 7 6 5 8 9 5 2 3 4 5 6 6 7 9 8 6 7 7 8 10 12 12 12 13 15 16 17 18 16 13 13 16 18 18 18 18 18 19 19 19 19 22 27 31 32 31 31 29 27 29 33 35 33 31 33 36 36 35 35 35 33 32 32 31 30 29 28 27 26 25 23 22 22 22 22 21 21
3 2 1 3 1 6 4 5 8 9 6 3 4 4 2 3 3 3 4 6 7 5 5 5 5 7 9 11 13 15 14 13 13 13 13 16 17 14 12 15 17 17 17 17 18 18 18 18 20 23 26 30 32 34 36 35 30 28 31 31 30 29 30 33 34 33 33 34 34 33 32 32 31 30 30 28 27 26 24 23 23 23 23 22 21 21
3 4 1 1 1 5 7 8 7 6 3 3 3 1 2 5 4 4 8 11 6 4 4 5 6 10 11 11 12 15 16 15 13 12 13 13 10 9 14 18 19 18 18 17 17 17 16 18 23 28 30 32 35 37 39 38 34 32 31 27 25 27 31 32 32 32 32 34 35 33 32 31 30 30 30 28 27 26 25 24 24 24 24 23 22 21
3 4 1 1 1 4 6 7 6 3 4 6 3 2 4 6 6 7 9 11 5 3 4 7 9 11 12 11 11 13 15 16 15 14 14 10 5 9 15 18 18 19 18 18 18 17 18 22 26 29 30 33 36 38 39 39 37 33 29 24 22 26 30 31 31 32 33 35 35 34 32 31 30 30 30 28 27 26 25 25 25 25 25 24 23 22
5 4 2 2 1 2 3 4 2 6 6 3 1 1 3 3 2 3 7 8 5 2 4 9 12 14 14 14 13 12 15 18 17 11 7 5 8 13 15 16 16 17 17 17 17 18 21 26 28 29 30 32 35 37 38 38 36 32 28 23 22 26 29 30 32 34 35 36 35 33 32 32 31 31 30 28 27 26 26 26 26 26 25 24 24 23
6 4 1 1 1 1 0 2 3 6 7 5 4 4 3 3 4 4 5 6 4 1 6 12 14 16 17 15 15 14 15 17 16 8 2 4 12 15 15 16 16 16 17 20 23 24 27 30 30 30 31 32 34 36 36 37 35 30 26 24 23 25 28 30 34 37 37 37 36 34 33 33 32 32 31 29 28 28 27 27 27 27 26 25 25 24
3 2 3 2 1 2 1 3 4 5 3 2 4 6 4 4 4 3 2 5 4 2 9 12 14 16 17 16 16 16 14 14 15 11 7 11 16 16 16 17 18 19 20 22 25 27 30 33 33 32 31 30 33 36 36 35 32 27 25 24 24 25 26 29 34 38 38 39 37 35 35 35 34 33 32 31 30 29 29 28 28 27 26 25 25 25
5 2 4 2 1 2 2 1 2 2 4 3 5 10 6 3 3 1 1 5 5 6 12 12 13 15 15 15 16 14 12 12 13 13 14 18 20 18 17 17 20 24 26 26 27 27 31 34 35 34 32 29 31 36 37 33 28 24 24 26 25 24 25 29 36 40 40 40 38 36 36 36 35 34 33 32 32 31 30 29 28 27 26 25 25 25
5 4 3 1 2 1 2 1 3 4 5 3 6 11 8 2 4 3 5 6 6 11 13 12 13 14 12 13 13 11 9 10 12 15 18 20 20 20 20 20 21 24 28 30 31 31 33 35 33 32 32 30 32 36 37 32 26 23 25 27 24 23 28 35 40 40 36 35 35 36 37 36 35 35 34 34 32 31 30 29 27 26 26 25 24 24
2 2 1 2 2 2 3 2 3 4 5 4 7 10 7 1 5 4 7 7 10 15 14 12 14 13 11 12 11 9 9 11 14 17 19 20 19 20 23 26 27 29 30 31 33 33 32 32 32 32 32 31 31 33 34 30 23 23 27 25 22 27 35 40 40 35 31 31 34 36 37 36 36 36 35 34 32 30 29 29 28 27 26 25 24 23
1 1 1 1 2 1 3 2 3 5 4 2 7 8 5 3 3 5 7 8 11 14 13 13 13 12 11 12 11 11 14 16 17 19 19 20 19 19 22 26 28 28 30 32 33 32 30 30 32 33 34 34 31 31 31 26 22 25 26 23 25 35 41 38 34 32 31 32 34 35 36 36 36 36 35 33 31 30 29 29 28 27 26 25 24 23
1 1 2 2 3 0 1 0 2 4 4 3 8 8 5 4 5 7 9 10 11 11 12 12 11 10 11 13 13 15 17 18 19 20 20 21 21 20 23 25 25 26 30 32 32 31 29 27 29 33 36 36 33 30 28 23 22 26 24 24 33 42 40 34 32 30 30 31 34 35 36 36 35 35 34 32 31 31 30 28 28 27 26 25 24 22
1 1 2 3 2 2 1 2 2 4 5 5 7 6 6 6 6 6 8 11 11 11 10 10 11 12 12 13 15 17 17 18 19 20 21 21 21 20 22 26 27 29 31 32 33 32 29 26 29 35 38 38 35 31 25 21 23 26 25 29 40 43 36 32 31 28 28 30 33 35 35 35 35 34 33 33 31 31 30 29 27 26 26 25 24 23
2 1 1 3 3 1 3 6 5 6 7 6 4 6 9 8 6 6 9 11 11 10 9 10 12 15 14 15 16 16 16 17 19 20 21 21 20 21 22 26 30 32 33 34 35 33 28 28 33 36 38 40 37 28 23 24 24 26 29 37 43 40 34 31 28 27 28 30 32 33 33 33 33 33 33 33 32 32 31 30 28 27 26 25 24 24
2 1 1 2 3 4 5 6 6 7 9 10 10 9 8 7 7 8 10 11 11 11 11 10 12 15 15 15 14 15 17 18 19 20 21 20 20 21 23 27 32 34 35 36 36 31 28 30 35 37 38 39 33 25 26 30 27 27 35 43 44 39 33 28 26 27 29 29 30 31 31 31 32 33 34 33 33 32 32 30 30 28 26 25 24 24
3 1 1 1 3 5 4 6 8 9 10 14 15 11 8 8 9 9 10 12 13 13 13 14 15 16 16 14 14 15 18 19 19 20 19 18 19 20 20 24 30 34 37 38 34 30 29 31 35 36 34 31 29 30 34 36 34 35 41 45 43 38 32 27 26 28 29 29 29 29 30 32 34 34 33 33 32 31 30 30 30 29 27 26 25 23
3 3 3 3 3 4 7 10 12 11 11 12 11 8 8 11 13 12 11 12 13 14 16 17 17 15 14 15 15 16 18 19 19 19 18 16 16 17 19 24 29 34 39 38 32 29 32 33 32 31 29 29 33 38 40 39 41 44 45 43 40 35 29 26 27 28 28 28 27 28 29 32 34 35 34 33 33 32 31 31 30 30 30 29 27 25
3 4 4 4 4 5 7 10 13 14 12 9 7 8 10 12 14 16 15 14 14 15 17 19 20 17 16 16 15 15 18 19 17 18 18 16 15 17 22 28 33 35 35 33 30 31 32 30 29 30 32 35 39 41 42 44 45 45 42 40 38 32 27 26 28 27 27 26 27 28 29 31 34 36 35 33 32 32 33 32 32 31 31 30 27 26
4 6 5 5 5 6 8 9 11 12 12 10 11 14 14 13 16 17 16 16 17 17 17 19 22 23 22 21 18 15 16 17 16 17 16 15 16 22 27 31 33 32 29 28 30 32 31 30 31 33 35 39 43 44 44 44 43 41 39 39 36 30 26 26 26 24 25 25 27 28 30 31 33 35 35 33 32 31 30 29 29 29 29 28 27 26
5 7 7 6 6 9 11 11 9 8 11 13 16 17 15 15 16 17 18 19 19 19 18 18 21 23 23 25 26 21 15 15 17 18 17 19 24 28 32 33 30 25 25 27 27 29 32 35 35 34 36 41 46 45 44 42 39 37 38 38 34 28 25 23 23 22 23 25 27 28 31 32 33 33 33 32 31 30 27 25 25 24 24 24 24 23
Wind_Direction
70 71 87 196 202 205 202 167 136 137 136 134 143 173 213 238 272 258 264 281 210 261 262 232 254 273 269 261 255 229 192 217 234 236 240 238 236 235 234 241 240 239 248 255 255 246 241 239 238 238 238 239 238 237 238 240 242 245 248 251 255 262 270 278 290 302 310 318 321 322 321 321 320 316 313 315 323 327 326 324 319 314 319 324 330 333
60 88 202 217 199 177 163 147 115 105 106 106 144 203 260 224 256 261 249 289 314 326 269 284 309 287 280 264 246 202 185 220 225 224 235 234 235 238 235 243 242 246 258 261 256 247 241 239 239 238 238 236 233 233 234 237 241 243 244 248 254 260 267 277 289 298 306 313 316 315 314 313 312 309 307 308 315 319 318 320 319 313 311 315 323 333
40 136 225 213 164 113 75 97 95 88 101 88 118 150 280 248 271 292 304 318 345 325 282 337 332 291 287 279 238 200 202 225 223 220 233 233 236 240 236 243 248 256 261 256 252 247 241 239 239 238 237 235 233 233 235 238 240 239 241 246 251 257 266 277 288 295 303 309 309 308 307 307 305 303 302 301 302 306 307 310 316 316 311 307 311 327
44 249 241 149 126 102 67 50 67 78 99 119 136 153 264 272 319 295 311 333 312 267 278 316 318 284 289 297 267 229 223 249 255 239 247 237 237 244 242 248 247 250 255 255 254 248 240 238 237 236 235 234 231 231 233 235 234 235 239 245 249 256 265 275 285 292 299 302 302 301 301 301 298 296 296 293 289 293 298 303 311 317 314 308 303 311
203 245 136 90 77 94 103 36 80 107 310 270 190 192 229 252 229 235 296 332 313 306 291 307 310 280 293 316 299 299 287 271 264 260 262 246 240 253 262 257 245 243 250 254 257 252 239 235 236 236 234 233 229 229 232 232 232 235 241 244 247 255 263 273 283 288 291 292 293 294 294 292 289 289 287 283 285 289 294 302 309 314 315 312 305 302
194 223 129 97 58 69 126 232 193 171 293 304 238 209 192 175 267 283 331 352 345 339 347 6 341 291 306 307 276 308 338 286 250 243 257 254 247 247 253 255 249 246 248 247 253 256 245 238 238 238 235 231 229 231 232 233 234 238 241 242 245 252 261 271 279 282 283 282 285 287 285 282 281 281 280 279 283 286 292 301 308 311 313 312 307 301
155 54 77 122 101 73 83 256 233 156 110 316 261 187 136 77 1 319 332 12 344 287 301 57 91 273 304 292 270 310 321 292 282 251 256 259 251 237 240 250 252 250 249 246 250 253 250 244 239 238 235 231 231 233 233 232 235 237 237 238 242 251 259 268 274 276 276 275 278 280 277 276 275 274 274 276 279 283 292 299 301 306 309 308 305 301
149 86 65 100 99 88 99 250 217 137 115 254 236 123 66 360 310 284 200 184 245 281 313 25 153 252 294 276 273 330 310 295 295 269 261 256 248 242 240 246 249 249 246 244 248 248 246 243 239 238 239 236 235 235 232 231 232 233 234 236 241 249 258 264 268 270 269 269 273 275 273 272 270 268 270 273 276 282 290 292 296 302 303 301 300 288
155 166 185 145 115 162 211 212 181 142 125 249 211 103 11 306 250 182 148 186 295 354 315 297 141 224 275 271 308 356 313 296 288 269 261 255 248 245 244 247 248 249 248 242 244 247 246 243 242 242 243 243 240 237 233 231 231 231 232 234 239 247 255 260 262 264 264 266 271 272 269 267 265 264 267 270 274 279 285 290 294 298 293 286 281 267
212 218 199 152 153 213 218 201 168 158 191 233 161 92 59 73 73 85 116 138 38 3 265 257 155 172 274 279 312 3 283 266 266 267 263 257 255 250 248 252 252 253 254 243 240 247 249 248 248 248 247 246 243 239 234 231 229 229 229 231 238 246 252 255 257 258 260 264 269 268 265 263 261 261 264 268 274 278 283 287 289 288 283 278 270 263
324 300 205 148 179 198 173 128 164 180 226 57 112 63 39 50 57 63 77 90 63 289 256 253 236 98 302 282 249 213 227 212 218 264 275 271 272 261 251 252 255 258 257 251 247 250 252 253 253 251 247 244 241 236 230 226 225 225 227 231 238 245 248 250 252 254 258 264 267 266 263 259 257 258 262 267 272 275 277 281 283 279 272 270 267 267
351 25 251 264 204 128 112 69 52 218 5 46 72 40 7 346 30 32 358 49 92 264 260 268 297 109 224 267 252 244 258 219 191 234 261 267 274 270 262 256 256 261 263 260 254 252 254 255 249 243 242 240 234 229 224 222 222 222 226 231 236 241 243 246 249 252 258 263 265 264 259 255 255 256 259 264 267 269 273 276 275 270 265 264 265 269
311 226 268 319 191 115 120 50 350 360 33 51 47 49 27 339 2 356 315 314 218 243 242 275 322 197 230 255 261 264 268 252 221 226 243 256 265 270 275 279 278 274 267 262 256 254 252 247 241 235 235 233 227 225 222 220 220 222 226 230 234 238 241 243 246 251 257 262 263 260 255 252 253 254 256 260 263 265 268 269 266 262 259 259 263 270
328 293 328 52 280 50 132 159 285 307 46 44 53 101 101 31 6 309 284 293 277 263 258 289 298 275 279 276 251 247 257 257 237 234 245 253 259 270 284 295 294 281 266 258 254 254 249 243 239 235 233 230 226 225 222 220 220 222 225 228 232 236 239 241 245 250 256 259 261 257 253 251 250 252 255 257 260 264 264 263 261 256 253 255 261 263
329 295 284 146 259 353 114 178 173 145 93 66 159 130 140 156 170 262 244 254 286 292 297 303 252 217 260 284 241 232 252 270 265 259 269 269 264 278 294 291 285 278 269 258 252 252 250 246 243 238 235 231 228 226 222 221 221 221 224 227 230 233 236 238 243 249 254 256 257 253 249 249 249 252 256 258 260 262 261 258 252 248 249 252 254 254
191 266 274 301 282 74 81 233 121 101 84 252 137 106 164 180 155 214 209 192 272 316 299 267 230 218 231 274 281 275 281 289 289 292 298 285 282 299 293 282 278 276 272 261 253 254 254 251 246 241 237 234 230 227 223 222 221 221 224 226 229 233 235 238 243 248 252 253 252 249 246 246 248 250 253 255 255 254 255 252 245 245 250 253 255 257
15 280 300 345 346 69 136 230 58 62 163 137 120 181 222 175 118 116 266 16 67 312 280 232 250 286 313 296 305 358 342 322 336 337 313 287 291 304 282 276 278 274 274 267 257 256 257 255 248 243 240 235 231 227 224 224 223 223 224 225 228 231 233 237 242 246 249 248 247 246 245 245 246 248 251 253 253 253 254 250 246 248 252 255 258 261
149 280 301 23 63 352 220 186 26 24 123 119 179 221 215 107 88 98 296 342 39 263 272 254 255 287 334 295 319 2 346 325 330 330 318 300 298 294 280 277 278 274 275 274 266 261 260 256 251 246 242 239 234 231 229 227 226 225 225 227 228 230 232 237 241 244 246 244 243 243 243 244 245 248 251 253 253 252 248 243 243 246 250 254 260 264
121 283 305 3 171 308 358 73 353 349 67 116 196 207 107 145 236 64 137 272 330 282 284 287 274 259 206 239 304 334 312 305 310 315 314 305 301 296 290 287 286 286 285 280 275 268 261 256 252 247 244 241 238 234 232 229 226 225 225 228 230 233 237 240 241 242 243 241 240 241 242 243 244 246 248 248 248 245 240 238 239 244 249 255 261 264
101 126 289 288 224 307 7 94 237 293 35 38 6 346 43 153 189 176 158 185 199 276 291 308 313 273 215 209 228 277 285 294 301 306 303 294 293 293 291 293 294 294 291 284 278 273 266 259 255 251 246 244 240 235 232 228 225 225 226 227 229 232 234 235 237 238 238 238 238 239 241 242 243 245 246 245 242 239 237 238 241 245 251 257 260 258
66 118 255 294 319 296 257 210 200 183 146 84 133 241 311 119 161 209 242 152 146 205 236 295 298 274 222 190 207 262 284 284 281 288 291 294 299 298 294 295 296 296 293 290 284 276 271 267 264 259 252 248 242 237 231 226 225 225 225 226 228 229 229 231 234 235 234 234 234 236 238 240 241 242 242 241 239 237 238 240 243 249 255 257 255 251
75 155 216 291 311 244 239 249 199 180 166 152 179 206 188 148 121 151 286 292 112 197 182 197 283 279 206 177 218 249 272 279 282 289 296 301 302 302 300 298 296 297 295 291 287 281 276 273 271 266 258 249 240 235 230 226 225 224 224 226 226 226 227 229 231 231 231 232 232 235 237 238 239 238 238 238 237 238 240 243 247 252 254 253 249 248
140 111 169 269 261 242 260 311 81 161 148 136 179 197 154 137 130 156 247 269 227 234 160 122 276 282 155 191 231 229 246 278 292 298 305 305 302 304 303 300 299 298 295 292 290 286 281 279 278 273 263 250 240 236 231 227 225 224 226 226 224 224 227 229 230 229 230 230 231 234 235 236 236 236 236 236 236 238 241 245 250 253 251 249 249 251
110 87 7 282 286 310 331 360 26 56 93 117 264 149 139 152 140 159 192 197 210 224 141 90 275 277 298 244 229 208 267 308 315 315 317 312 309 309 304 302 303 302 301 300 296 292 288 284 282 274 263 253 245 240 235 230 228 227 227 225 223 226 228 228 227 227 228 229 230 232 233 234 234 234 234 234 236 239 242 247 251 251 248 247 250 253
278 195 57 329 324 332 343 354 350 351 42 218 254 230 163 125 101 116 169 122 267 225 166 180 267 265 269 315 311 317 329 332 328 325 324 318 315 317 314 312 312 310 312 313 311 310 304 294 287 276 266 258 251 246 241 236 232 229 227 225 224 226 227 226 225 226 227 228 229 229 230 232 232 233 234 234 237 240 244 249 251 250 247 247 250 252
252 205 125 285 298 300 304 311 307 298 291 255 236 220 208 151 138 171 178 126 245 236 161 179 259 275 299 317 315 319 330 331 327 328 324 317 318 323 322 320 319 320 321 320 319 318 312 303 290 278 272 265 259 253 247 242 237 234 231 228 227 226 226 225 224 225 226 227 227 228 229 231 231 232 234 236 238 241 245 249 250 248 246 246 248 250
93 258 209 193 210 238 259 267 248 88 299 282 272 239 205 190 173 135 95 203 220 223 216 227 252 281 296 302 305 316 328 327 326 325 317 313 319 323 319 316 317 319 320 321 323 321 315 310 297 287 282 275 269 262 255 249 244 240 235 232 230 228 227 226 224 224 225 225 226 229 231 232 233 234 236 237 240 243 246 249 249 248 246 245 246 248
89 295 247 201 224 247 261 274 288 320 275 269 273 266 221 185 168 151 203 238 222 78 280 262 250 271 285 295 306 317 323 322 319 316 310 309 314 315 313 314 316 319 323 327 329 326 322 318 312 305 297 289 282 273 263 257 251 246 241 237 234 229 227 225 222 222 223 224 225 228 231 233 235 236 238 239 242 244 246 248 249 248 246 244 244 248
125 251 247 191 251 267 270 276 276 268 261 255 264 271 254 191 182 194 228 243 222 197 266 275 279 278 286 299 308 312 313 312 311 307 303 305 311 315 317 319 322 326 330 332 330 330 330 327 325 320 311 303 293 282 273 264 257 251 246 242 236 231 228 224 220 220 221 222 225 228 231 234 234 234 236 238 241 243 244 246 248 248 246 244 245 248
149 240 244 153 287 280 271 273 270 258 264 270 267 267 256 220 210 215 240 255 247 241 260 276 285 286 289 293 296 301 302 301 303 302 305 311 318 323 321 322 328 331 332 333 331 332 333 331 329 326 321 317 308 297 287 275 265 257 250 245 238 231 227 222 218 219 220 221 226 230 231 232 232 231 232 235 238 240 241 243 245 246 244 244 245 247
188 268 222 104 317 282 271 285 289 255 257 276 283 278 264 246 236 229 245 262 257 252 262 276 286 285 282 283 290 300 305 309 312 312 315 318 320 322 322 327 334 333 332 332 331 332 333 331 330 329 328 327 322 316 306 291 278 266 255 249 241 232 225 220 218 219 220 223 227 229 229 230 229 229 230 232 236 237 239 241 242 243 243 243 244 244
165 270 6 60 349 282 288 344 323 302 291 287 297 296 275 213 222 222 226 229 220 246 279 294 292 285 293 305 307 307 310 314 313 314 318 317 317 321 325 330 333 330 330 331 331 332 332 331 332 331 330 329 327 324 319 310 295 275 262 255 246 234 223 219 220 220 221 224 226 227 228 227 227 227 228 229 232 234 237 239 240 240 241 240 241 242
145 159 16 56 306 275 310 344 314 314 335 329 308 302 243 219 252 255 267 254 219 222 285 290 276 290 308 317 314 313 316 316 313 314 314 310 311 317 326 331 331 328 327 328 328 329 331 330 329 328 328 328 327 325 323 320 308 288 276 266 251 235 223 220 221 221 223 224 225 226 227 226 225 226 227 227 229 232 235 236 237 238 239 239 240 241
128 122 142 137 218 275 301 324 326 344 351 269 247 156 227 273 274 248 283 289 258 196 233 263 283 300 308 313 312 313 314 312 310 310 305 300 303 320 331 332 330 327 326 327 327 328 329 327 324 324 325 326 325 324 323 321 314 302 290 276 254 234 224 222 222 223 224 225 224 225 226 225 225 225 226 228 229 230 232 234 236 239 240 241 241 240
123 115 152 174 170 266 306 354 0 328 254 245 236 196 234 249 224 216 263 282 265 203 263 290 302 305 309 314 311 310 311 310 312 308 298 294 315 337 332 328 325 324 324 325 326 326 325 323 322 322 323 323 323 322 321 320 317 310 298 280 255 235 225 223 224 225 226 225 224 224 224 224 224 225 226 228 229 230 232 234 236 239 240 242 242 242
137 138 158 174 190 276 340 28 341 275 286 313 338 265 259 269 268 282 292 278 231 191 327 323 320 321 325 324 320 321 318 314 314 305 277 296 341 340 329 323 320 319 319 320 321 319 318 318 317 316 317 318 320 321 320 319 317 311 300 282 258 239 229 225 226 227 227 226 224 223 224 224 223 224 225 227 229 230 231 233 235 238 240 243 245 247
135 141 168 253 226 164 204 275 274 304 331 6 12 327 315 321 311 303 303 281 225 182 345 335 330 328 328 325 323 325 323 318 314 305 264 339 337 329 320 314 312 312 313 314 314 312 313 313 313 314 315 317 319 320 320 319 316 308 296 281 261 245 234 229 230 231 229 228 225 223 224 224 222 222 223 224 226 228 230 233 236 238 240 243 246 248
102 145 171 213 266 94 65 308 328 341 317 281 319 312 281 253 252 219 239 269 249 334 348 341 332 327 325 324 325 327 329 323 313 310 327 334 326 321 316 311 310 311 311 311 312 312 314 315 316 316 316 317 319 320 321 320 316 306 291 278 263 249 239 234 236 237 234 231 227 224 225 225 222 221 221 221 223 226 229 232 235 238 240 242 246 250
39 37 111 118 332 54 92 261 279 274 246 238 324 327 312 253 229 183 289 270 269 335 347 338 326 324 322 321 324 327 329 320 308 310 325 326 321 320 318 314 314 316 316 316 316 316 316 317 318 317 317 318 318 320 321 320 314 302 287 278 267 253 243 241 244 244 240 235 230 227 227 226 222 222 221 221 223 225 228 230 233 236 239 241 245 250
27 9 55 93 272 163 134 212 239 246 252 271 326 327 318 205 133 45 327 288 304 335 338 330 321 320 318 317 321 323 318 311 306 309 316 317 315 314 314 314 316 317 317 319 320 319 319 318 317 316 316 315 316 319 320 317 311 297 285 281 272 255 250 253 255 253 248 240 233 230 230 227 223 222 222 222 223 225 228 229 229 232 235 239 243 248
28 6 60 140 202 189 178 225 268 267 261 287 318 315 310 99 86 17 311 297 323 329 325 323 318 314 314 317 317 314 307 302 300 302 307 309 309 310 312 313 314 314 314 315 316 317 317 316 314 313 310 310 312 315 317 314 304 290 286 282 270 262 264 267 266 262 254 243 235 231 229 227 225 225 224 224 224 225 227 228 227 229 231 234 239 243
39 6 17 120 170 181 172 200 293 288 244 273 321 319 335 20 3 310 296 305 319 317 315 317 313 311 317 318 313 309 306 304 304 304 306 309 310 312 313 313 313 312 312 312 312 314 314 312 313 311 308 309 310 310 313 312 297 288 287 277 269 275 278 276 271 265 256 245 236 231 227 225 225 225 225 225 223 222 224 226 227 228 228 229 234 239
188 226 312 232 195 60 25 21 329 286 248 350 353 346 3 1 298 289 304 311 310 311 312 311 308 312 317 314 311 310 308 309 310 310 310 312 313 313 313 313 312 310 310 309 309 309 309 310 313 311 309 309 308 305 308 308 294 288 284 275 280 287 284 277 272 265 254 244 237 232 228 225 223 223 222 222 221 220 221 223 225 226 226 226 229 233
194 141 332 267 208 86 14 258 264 277 289 353 10 339 316 305 281 289 311 312 312 316 314 310 310 313 316 316 314 311 310 311 311 310 310 311 312 313 313 312 311 310 309 308 307 307 309 312 314 312 310 309 306 303 305 306 295 286 283 286 292 292 283 275 271 260 250 244 237 232 229 225 223 221 220 219 220 219 219 221 221 222 224 225 226 228
227 173 211 240 225 187 238 250 265 294 306 325 336 309 301 294 286 302 312 309 311 315 313 311 312 313 316 317 313 310 309 309 308 308 309 310 312 314 313 311 310 308 308 307 306 306 309 314 315 313 309 307 305 303 309 313 300 285 287 298 299 291 280 274 266 253 246 243 236 231 228 224 221 219 219 218 218 217 217 217 217 218 221 223 225 227
259 234 182 227 274 281 263 268 291 309 314 314 312 308 302 297 305 319 319 312 309 310 310 309 308 308 311 312 309 307 306 306 307 308 308 311 313 315 314 312 310 309 309 308 306 307 312 317 317 313 309 308 311 314 320 319 308 292 295 302 300 290 279 271 259 250 246 240 235 230 225 220 219 219 219 219 218 218 219 218 216 216 218 221 225 227
290 314 303 279 309 313 308 310 315 319 316 312 310 308 306 309 315 320 317 311 309 310 308 306 304 304 304 303 302 301 301 303 306 307 308 312 315 315 315 313 310 309 309 307 307 313 318 318 317 316 315 318 323 324 320 317 314 309 306 304 297 288 278 266 254 248 244 238 233 228 221 218 217 216 215 215 216 216 219 219 218 218 217 218 222 225
314 358 344 317 308 292 285 293 303 307 300 294 297 306 315 316 315 314 312 306 302 302 301 299 301 301 301 301 302 299 299 302 304 306 308 311 314 315 314 311 309 308 307 307 312 319 319 318 320 323 324 324 323 321 318 316 316 315 312 306 297 287 274 261 252 247 242 238 231 224 219 218 216 212 210 211 211 212 213 214 216 218 220 222 222 223
316 356 335 310 297 278 278 298 316 318 304 286 288 307 313 313 312 312 311 306 303 303 303 302 302 300 297 297 297 295 296 298 301 305 307 308 313 315 312 309 307 305 307 313 319 320 318 321 325 325 321 319 319 319 317 316 315 314 312 307 300 287 269 259 254 246 242 238 230 223 219 217 215 212 208 207 209 213 216 218 219 221 227 230 230 231
353 352 336 330 326 312 309 320 329 324 310 302 311 316 315 314 313 312 312 312 312 312 311 310 310 308 304 301 298 294 294 298 303 309 309 309 312 312 310 308 305 305 311 319 320 319 321 323 322 319 316 316 317 316 315 313 313 311 311 309 303 289 270 259 252 245 240 236 229 224 221 217 213 210 207 206 208 211 215 222 225 228 234 238 240 241
359 342 330 327 316 302 303 312 320 312 300 302 312 316 316 317 316 313 315 317 315 314 315 313 312 312 311 307 304 300 296 302 313 318 315 312 313 313 310 307 307 310 318 322 322 322 323 320 318 317 315 313 314 314 313 312 311 311 311 312 307 292 274 259 249 243 241 237 231 226 222 216 210 206 204 206 208 207 209 216 222 228 235 241 246 248